"Pseudo-MPEC" for P11YahK

Created 2024 Sep 7 18:22:12 UT using Find_Orb

Click here for an explanation of pseudo-MPECs

 
 Astrometry: 
     P11YahK* C2024 09 06.51691601 46 45.290+06 40 33.93   ~96IM 21.89wXNEOCPF51
     P11YahK  C2024 09 06.52834301 46 46.040+06 40 24.40   ~96IM 21.73wXNEOCPF51
     P11YahK  C2024 09 06.53983001 46 46.809+06 40 14.88   ~96IM 21.42wXNEOCPF51
     P11YahK 1C2024 09 07.10035 01 47 26.49 +06 32 13.4    ~975b 21.2 VXNEOCP033
     P11YahK 1C2024 09 07.10396 01 47 26.73 +06 32 10.6    ~975b 21.3 VXNEOCP033
     P11YahK 1C2024 09 07.10757 01 47 26.98 +06 32 07.8    ~975b 21.9 VXNEOCP033
     P11YahK KC2024 09 07.32976 01 47 42.895+06 29 00.10   ~979M 21.4 GVNEOCPH36
     P11YahK KB2024 09 07.34727 01 47 44.016+06 28 44.44   ~979b 20.9 GVNEOCP734
     P11YahK KC2024 09 07.35992701 47 44.74 +06 28 33.4    ~9797 21.6 GVNEOCPH21
     P11YahK KC2024 09 07.36116 01 47 44.849+06 28 30.47   ~979Mx20.9 GVNEOCPH36
     P11YahK KC2024 09 07.36281701 47 44.93 +06 28 30.8    ~9797 21.6 GVNEOCPH21
     P11YahK KC2024 09 07.36580301 47 45.14 +06 28 28.4    ~9797 21.6 GVNEOCPH21
     P11YahK KB2024 09 07.36678 01 47 45.271+06 28 28.42   ~979b 21.1 GVNEOCP734
     P11YahK  C2024 09 07.57588601 47 59.636+06 25 31.14   ~97Gq 21.91GVNEOCPF51
     P11YahK  C2024 09 07.57670401 47 59.690+06 25 30.41   ~97Gq 22.17GVNEOCPF51

Station data:
(033) Karl Schwarzschild Observatory, Tautenburg  (N50.980139 E11.711240)
   Germany.  Observer B. Stecklum. 1.34-m f/3 Schmidt + CCD.
(734) Farpoint Observatory, Eskridge  (N38.890239 W96.002420)  US/Kansas.
   Observer G. Hug. 0.69-m reflector + CCD.
(F51) Pan-STARRS 1, Haleakala  (N20.707234 W156.255910)  US/Hawaii.
   Observers J. Bulger, T. Lowe, A. Schultz, M. Willman. Measurers K.
   Chambers, S. Chastel, T. de Boer, L. Denneau, J. Fairlamb, H. Flewelling,
   M. Huber, C.-C. Lin, E. Magnier, Y. Ramanjooloo, R. Wainscoat, R. Weryk.
   1.8-m Ritchey-Chrétien + CCD.
(H21) Astronomical Research Observatory, Westfield  (N39.483054 W87.968270)
   US/Illinois.  Observer R. Holmes. Measurers S. Foglia, L. Buzzi, T.
   Linder, R. Holmes. 0.76-m f/3.0 astrograph + CCD0.81-m f/4.0 astrograph +
   CCD0.61-m f/4.5 astrograph + CCD0.40-m f/5.32 astrograph + CCD.
(H36) Sandlot Observatory, Scranton  (N38.797718 W95.706550)  US/Kansas.
   Observer G. Hug. 0.56-m reflector + CCD.

Orbital elements:  P11YahK
   Perihelion 2024 Sep 13.61775 +/- 12.8 TT = 14:49:33 (JD 2460567.11775)
Epoch 2024 Sep  7.0 TT = JDT 2460560.5   Earth MOID: 0.5354      AutoNEOCP
M 358.56691040 +/- 2.3              (J2000 ecliptic)
n   0.21655250 +/- 0.0729           Peri.  192.84270 +/- 8
a   2.74637963 +/- 0.821            Node   172.28379 +/- 0.8
e   0.4406586 +/- 0.121             Incl.   11.58001 +/- 0.6
P   4.55136                H 20.53  G  0.15   U 11.0
q 1.53616358 +/- 0.0417    Q 3.95659568 +/- 1.6
14 of 15 observations 2024 Sept. 6-7 (25.4 hr); mean residual 0".23
Residuals in arcseconds: 
240906 F51  .02+  .08-    240907 033  .23+  .15+    240907 H21  .09-  .21-    
240906 F51  .09-  .03-    240907 H36  .37+  .57+    240907 H21  .13+  .04-    
240906 F51  .05+  .08+    240907 734  .07-  .04-    240907 734  .37-  .70+    
240907 033  .11+  .42-    240907 H21  .11-  .10-    240907 F51  .03-  .07-    
240907 033  .10+  .14-    240907 H36( 1.1-  2.1-)   240907 F51  .01-  .09-    

Ephemerides (geocentric):
Date (UTC) HH   RA             Dec           delta  r     elong  mag " sig PA
---- --------  ------------   ------------  ------ ------ -----  --- --------
2024 09 07 18  01 48 11.856   +06 23 03.51  .63440 1.5371 137.7 21.7 .305  97
2024 09 07 19  01 48 14.731   +06 22 27.24  .63422 1.5371 137.7 21.7 .361 109
2024 09 07 20  01 48 17.603   +06 21 50.93  .63405 1.5371 137.7 21.7 .432 118
2024 09 07 21  01 48 20.470   +06 21 14.58  .63387 1.5371 137.8 21.7 .515 125
2024 09 07 22  01 48 23.335   +06 20 38.18  .63370 1.5371 137.8 21.7 .607 130
2024 09 07 23  01 48 26.195   +06 20 01.74  .63353 1.5370 137.8 21.7 .707 134
2024 09 08 00  01 48 29.052   +06 19 25.26  .63335 1.5370 137.9 21.7 .815 137
2024 09 08 01  01 48 31.905   +06 18 48.74  .63318 1.5370 137.9 21.7 .929 139
2024 09 08 02  01 48 34.755   +06 18 12.18  .63301 1.5370 137.9 21.7 1.05 141
2024 09 08 03  01 48 37.600   +06 17 35.57  .63283 1.5370 137.9 21.7 1.18 143
2024 09 08 04  01 48 40.443   +06 16 58.92  .63266 1.5370 138.0 21.7 1.31 145
2024 09 08 05  01 48 43.281   +06 16 22.23  .63249 1.5370 138.0 21.7 1.44 146
2024 09 08 06  01 48 46.116   +06 15 45.50  .63232 1.5370 138.0 21.7 1.59 147
2024 09 08 07  01 48 48.947   +06 15 08.72  .63214 1.5369 138.1 21.7 1.74 148
2024 09 08 08  01 48 51.774   +06 14 31.90  .63197 1.5369 138.1 21.7 1.89 149
2024 09 08 09  01 48 54.598   +06 13 55.04  .63180 1.5369 138.1 21.7 2.05 149
2024 09 08 10  01 48 57.418   +06 13 18.14  .63163 1.5369 138.2 21.6 2.21 150
2024 09 08 11  01 49 00.235   +06 12 41.20  .63146 1.5369 138.2 21.6 2.38 151
2024 09 08 12  01 49 03.047   +06 12 04.21  .63129 1.5369 138.2 21.6 2.56 151
2024 09 08 13  01 49 05.856   +06 11 27.18  .63111 1.5369 138.3 21.6 2.74 152
2024 09 08 14  01 49 08.662   +06 10 50.11  .63094 1.5369 138.3 21.6 2.92 152
2024 09 08 15  01 49 11.463   +06 10 13.00  .63077 1.5369 138.3 21.6 3.11 153
2024 09 08 16  01 49 14.261   +06 09 35.85  .63060 1.5368 138.4 21.6 3.31 153
2024 09 08 17  01 49 17.055   +06 08 58.65  .63043 1.5368 138.4 21.6 3.51 153
2024 09 08 18  01 49 19.846   +06 08 21.42  .63026 1.5368 138.4 21.6 3.72 154
2024 09 08 19  01 49 22.633   +06 07 44.14  .63010 1.5368 138.5 21.6 3.93 154
2024 09 08 20  01 49 25.416   +06 07 06.82  .62993 1.5368 138.5 21.6 4.15 154
2024 09 08 21  01 49 28.195   +06 06 29.46  .62976 1.5368 138.5 21.6 4.37 155
2024 09 08 22  01 49 30.971   +06 05 52.05  .62959 1.5368 138.6 21.6 4.60 155
2024 09 08 23  01 49 33.743   +06 05 14.61  .62942 1.5368 138.6 21.6 4.83 155
2024 09 09 00  01 49 36.511   +06 04 37.12  .62925 1.5368 138.6 21.6 5.07 155
2024 09 09 01  01 49 39.276   +06 03 59.59  .62908 1.5367 138.6 21.6 5.31 156
2024 09 09 02  01 49 42.037   +06 03 22.03  .62892 1.5367 138.7 21.6 5.56 156
2024 09 09 03  01 49 44.794   +06 02 44.42  .62875 1.5367 138.7 21.6 5.81 156
2024 09 09 04  01 49 47.548   +06 02 06.77  .62858 1.5367 138.7 21.6 6.07 156
2024 09 09 05  01 49 50.297   +06 01 29.07  .62841 1.5367 138.8 21.6 6.34 156
2024 09 09 06  01 49 53.043   +06 00 51.34  .62825 1.5367 138.8 21.6 6.61 156
2024 09 09 07  01 49 55.786   +06 00 13.56  .62808 1.5367 138.8 21.6 6.88 157
2024 09 09 08  01 49 58.524   +05 59 35.75  .62791 1.5367 138.9 21.6 7.16 157
2024 09 09 09  01 50 01.259   +05 58 57.89  .62775 1.5367 138.9 21.6 7.45 157
2024 09 09 10  01 50 03.990   +05 58 20.00  .62758 1.5367 138.9 21.6 7.74 157
2024 09 09 11  01 50 06.718   +05 57 42.06  .62742 1.5366 139.0 21.6 8.03 157
2024 09 09 12  01 50 09.441   +05 57 04.08  .62725 1.5366 139.0 21.6 8.34 157
2024 09 09 13  01 50 12.161   +05 56 26.06  .62709 1.5366 139.0 21.6 8.64 157
2024 09 09 14  01 50 14.877   +05 55 48.00  .62692 1.5366 139.1 21.6 8.95 158
2024 09 09 15  01 50 17.590   +05 55 09.90  .62676 1.5366 139.1 21.6 9.27 158
2024 09 09 16  01 50 20.298   +05 54 31.75  .62659 1.5366 139.1 21.6 9.59 158
2024 09 09 17  01 50 23.003   +05 53 53.57  .62643 1.5366 139.2 21.6 9.92 158